COSMOS 1275 DEB

Satellite information

Favourite Embed

Satellite Type and Status

DEBRISIN ORBIT

Key statistics

Satellite COSMOS 1275 DEB at a glance.

Uptime

16158

Days in orbit

Revolutions

≈ 14.3

Per day

Orbit

LEO

Low Earth Orbit

Inclination

82.9

Latest

Satellite identification and parameters

Extended collection of information and parameters for COSMOS 1275 DEB.

Object identification

Identified? True

Debris? True

Object name: COSMOS 1275 DEB

International designator: 1981-053AS

Object number (NORAD): 12698

Object ID (CCSDS): 12698

Country: COMMONWEALTH OF INDEPENDENT STATES (CIS)

Current information (Y/N): Y

RCS size: SMALL

Orbital parameters

Period: 100.552 minutes

Inclination: 82.8993 deg

SMA: 7162.865 km

Apoapsis: 793.604 km

Periapsis: 775.856 km

RAAN: 290.2909 deg

Eccentricy: 0.00123889

Argument of periapsis: 174.0042 deg

Mean anomaly: 186.1296 deg

Mean motion: 14.32097499 rev/day

Mean motion (dot): 0.00003464 rev/day2

B* drag term: 0.0012815736 1/REarth

Two-line elements (TLE)

Creation date: Aug. 30, 2025, 3:38 a.m.

Reference frame: TEME

Reference center: EARTH

Epoch: Aug. 29, 2025, 3:32 p.m. UTC

TLE line 0: 0 COSMOS 1275 DEB

TLE line 1: 1 12698U 81053AS 25241.64765412 .00003464 00000-0 12816-2 0 9999

TLE line 2: 2 12698 82.8993 290.2909 0012389 174.0042 186.1296 14.32097499249713

Live tracking on map

Real-time ground track for satellite COSMOS 1275 DEB.

In-orbit conjunctions

A list of the most updated potential collisions computed for object COSMOS 1275 DEB.

Target Orbit TCA Probability of collision Miss distance Type
DMSP 5D-2 F13 DEB SSO 2025-08-10 14:33:48 0.0003357867 65.0 (m) DEBRIS
CZ-6A DEB LEO 2024-12-16 11:31:50 0.0006017724 432.0 (m) DEBRIS
CZ-6A DEB LEO 2024-11-23 21:43:57 0.0001773395 791.0 (m) DEBRIS
CZ-6A DEB LEO 2024-11-23 13:26:32 0.0001346599 75.0 (m) DEBRIS
CZ-6A DEB SSO 2024-11-11 02:19:29 0.0006417108 992.0 (m) DEBRIS

Associated space launch

Navigation satellite providing location information for the Tsiklon-B navigation system

COSMOS 1275 DEB was lifted into orbit during the mission ‘Kosmos-3M | Parus 27’, on board a Kosmos-3M space rocket.

The launch took place on June 4, 1981, 3:41 p.m. from 132/2.

For more information about the launch, click the button.

Launch to space Kosmos-3M | Parus 27
Kosmos-3M | Parus 27

Agency: N/A

Status: Launch Successful

Launch date: June 4, 1981, 3:41 p.m. UTC

Rocket: Kosmos-3M

Launch pad: 132/2

Location: Plesetsk Cosmodrome, Russian Federation

...

Latest news about this satellite

There are no fresh news available about this satellite. Check back as we update our databases every day.


Newsletter sign-up

Weekly statistics, charts and insights to help you stay on top of the space industry.